Showing default

ORBCOMM FM 106, 40088

Orbit data source: Space-Track

ORBCOMM FM 106, 40088 is a payload satellite owned by Orbcomm (US) in LEO that was launched on Mon, 14 Jul 2014 UTC via an FALCON 9 launch vehicle from the Air Force Eastern Test Range (AFETR). Payloads include a variety of satellites, spacecraft, and rockets equipped with specific instruments for various scientific and technological missions. These include communications satellites like Starlink; space stations such as the ISS; scientific satellites like the Hubble; Earth observation satellites from companies like Planet Labs, Umbra, and HawkEye 360; GPS; miniature CubeSats for education and research; and military/defense satellites.

Loading next visibility...
ORBCOMM FM 106 details
Identifier
40088, 2014-040C
Orbit
LEO
Last TLE update8 hours ago
Origin
Flag of USOrbcomm (US / ORB)
ManufacturerSNC Louisville
MissionNon-operational Commercial Communications
Bus & MotorSN-100A, Unknown motor
Mass172 kg wet, 158 kg dry
Launch date (UTC)
2014-07-14 (10 years ago)
Launch vehicle
FALCON 9
Launch site
Air Force Eastern Test Range (AFETR)
Object type
Payload
Rocket body
Debris
Shape & HBRBox + 1 Pan + 1 Ant, 13 m
Radar Cross Section2.222 m², Medium (>0.1 m² and < 1m²)

Expand to show TLE details & history

TLE from 8 hours ago
0 ORBCOMM FM 106
1 40088U 14040C   24361.28271847  .00003770  00000-0  67292-3 0  9990
2 40088  47.0604 309.3942 0017715 343.2530  16.7774 14.68565850558057
Epoch: 2024-12-26T06:47Z
Definitive object data (Epoch: 2024-12-26T06:47:06.875Z)
Latitude-0.00002°
Longitude112.35119°
Altitude653.929 km
Speed7.538 km/s
True Right ascension20h 37m 34s
True Declination0° 00' 00"
Sunlit
Object was in daylight at TLE epoch
Visualization TLE readout
Latitude-9.33754°
Longitude101.97701°
Altitude655.084 km
Speed7.538 km/s
Apparent Right ascension22h 23m 14s
Apparent Declination-32° 33' 45"
Sunlit
Object is in daylight
Visualization observer readout
Local Sidereal Time14:15:25
Azimuth100.04° ESE
Elevation-43.429°
Doppler factor1
Orbital elements
Apogee altitude679.361 km
Perigee altitude654.401 km
Semi-major axis7,045.018 km
Eccentricity0.0017715
Inclination47.0604°
RAAN309.3942°
Arg. of periapsis343.253°
True anomaly16.83612°
Mean anomaly16.7774°
Eccentric anomaly16.80675°
Mean motion3.67046 °/min
BSTAR0.00067292
Orbital period98.08 mins
Loading maneuver chart data...
Loading historical data...
Loading historical data...
Loading historical data...
Loading historical data...
Loading historical data...
Loading historical data...
Loading historical data...

ORBCOMM FM 106 Visibility forecast

Observer location: undefined°, undefined

Span
Click to sort rows by Start time (UTC) header in descending order
Start Az.
Max El. time (UTC)
Max El. Az.
Max El.
End time (UTC)
End Az.
8 mins2024-12-26 23:16:30.399Z206.284° SW2024-12-26 23:20:30.399Z143.747° SSE31.073°2024-12-26 23:24:30.399Z76.621° E
7 mins2024-12-27 01:00:30.399Z265.69° W2024-12-27 01:03:30.399Z355.512° N40.339°2024-12-27 01:07:30.399Z57.202° ENE
7 mins2024-12-27 02:43:30.399Z300.728° NW2024-12-27 02:46:30.399Z355.848° N29.721°2024-12-27 02:50:30.399Z61.402° ENE
8 mins2024-12-27 04:26:30.399Z307.282° NW2024-12-27 04:30:30.399Z38.537° NE36.366°2024-12-27 04:34:30.399Z92.977° ESE
8 mins2024-12-27 06:09:30.399Z285.994° WNW2024-12-27 06:12:30.399Z231.625° WSW37.83°2024-12-27 06:17:30.399Z140.271° SSE
|